www.pogodaiklimat.ru

Погода и климат >> Архив погоды >> Австралия >> Troughton Island


ПОГОДА в Troughton Island

  • Прогноз погоды в Troughton Island
  • Монитор погоды в Troughton Island
  • Климат города

АРХИВ ПОГОДЫ в Troughton Island

Время (UTC), дата Ветер
(напр.,м/с)
 
Видим.   Явления Облачность Т
(С)
Тd
(С)
f
(%)
Тe
(С)
Тes
(С)
Комфортность P
(гПа)
Po
(гПа)
Тmin
(С)
Tmax
(С)
R
(мм)
R24
(мм)
S
(см)
22 17.04 Ю 6 н/о н/о +28.4 +24.4 79 +40 +40 очень
душно
1011.4 1010.5
00 18.04 Ю 6 н/о н/о +30.5 +25.3 74 +44 +44 опасность
перегрева
1011.8 1010.9
01 18.04 Ю 6 н/о н/о +31.9 +23.4 61 +43 +43 опасность
перегрева
1012.0 1011.1 +26.4
03 18.04 Ю 4 н/о н/о +33.7 +17.8 39 +38 +38 очень
душно
1010.7 1009.8
04 18.04 Ю 3 н/о н/о +33.1 +20.6 48 +40 +40 очень
душно
1009.9 1009.0
06 18.04 СВ 2 н/о н/о +33.8 +17.9 39 +38 +38 очень
душно
1008.8 1007.9
07 18.04 СВ 3 н/о н/о +34.1 +19.7 43 +40 +40 очень
душно
1008.6 1007.7
09 18.04 С 2 н/о н/о +31.6 +19.6 49 +37 +37 очень
душно
1009.2 1008.3
10 18.04 С 3 н/о н/о +30.5 +21.3 58 +38 +38 очень
душно
1009.4 1008.5
12 18.04 СВ 2 н/о н/о +29.6 +24.2 73 +41 +41 опасность
перегрева
1010.9 1010.0
13 18.04 СВ 3 н/о н/о +29.2 +24.7 77 +42 +42 опасность
перегрева
1011.3 1010.4 +35.3
15 18.04 СВ 2 н/о н/о +29.1 +24.4 76 +41 +41 опасность
перегрева
1010.7 1009.8
16 18.04 штиль 0 н/о н/о +28.2 +25.0 83 +41 +41 опасность
перегрева
1010.3 1009.4
18 18.04 ЮЗ 2 н/о н/о +28.4 +24.8 81 +41 +41 опасность
перегрева
1009.5 1008.6
19 18.04 ЮЗ 4 н/о н/о +28.7 +24.3 77 +40 +40 очень
душно
1009.5 1008.6
21 18.04 ЮЗ 3 н/о н/о +28.5 +23.2 73 +38 +38 очень
душно
1010.0 1009.1
22 18.04 Ю 3 н/о н/о +28.6 +22.8 71 +38 +38 очень
душно
1010.5 1009.6
00 19.04 Ю 3 н/о н/о +30.8 +22.9 63 +41 +41 опасность
перегрева
1011.2 1010.3
01 19.04 ЮВ 3 н/о н/о +32.2 +22.3 56 +41 +41 опасность
перегрева
1011.3 1010.4 +27.8
03 19.04 В 3 н/о н/о +33.3 +21.1 49 +41 +41 опасность
перегрева
1010.6 1009.7
04 19.04 З 2 н/о н/о +33.5 +20.3 46 +40 +40 очень
душно
1009.8 1008.9
06 19.04 СВ 3 н/о н/о +33.1 +20.9 49 +40 +40 очень
душно
1009.0 1008.1
07 19.04 СЗ 2 н/о н/о +33.3 +20.5 47 +40 +40 очень
душно
1008.5 1007.6
09 19.04 СЗ 3 н/о н/о +31.4 +21.0 54 +39 +39 очень
душно
1008.7 1007.8
10 19.04 СЗ 3 н/о н/о +29.7 +21.6 62 +38 +38 очень
душно
1009.2 1008.3
12 19.04 С 2 н/о н/о +29.7 +23.4 69 +40 +40 очень
душно
1010.7 1009.8
13 19.04 С 2 н/о н/о +29.9 +22.9 66 +40 +40 очень
душно
1011.2 1010.3 +34.4
15 19.04 С 2 н/о н/о +29.4 +23.8 72 +40 +40 очень
душно
1010.8 1009.9
16 19.04 штиль 0 н/о н/о +28.4 +23.1 73 +38 +38 очень
душно
1010.6 1009.7
18 19.04 штиль 0 н/о н/о +28.3 +23.7 76 +39 +39 очень
душно
1009.7 1008.8
19 19.04 штиль 0 н/о н/о +28.1 +23.9 78 +39 +39 очень
душно
1009.7 1008.8
21 19.04 Ю 3 н/о н/о +28.4 +24.2 78 +40 +40 очень
душно
1010.3 1009.4
22 19.04 Ю 3 н/о н/о +28.8 +24.1 76 +40 +40 очень
душно
1011.0 1010.1
00 20.04 ЮВ 5 н/о н/о +31.6 +23.7 63 +43 +43 опасность
перегрева
1012.2 1011.3
01 20.04 ЮВ 6 н/о н/о +32.7 +24.5 62 +45 +45 опасность
перегрева
1012.2 1011.3 +28.1
03 20.04 В 5 н/о н/о +33.6 +24.8 60 +47 +47 опасность
перегрева
1011.4 1010.5
04 20.04 В 5 н/о н/о +32.8 +25.3 65 +47 +47 опасность
перегрева
1010.8 1009.9
06 20.04 СВ 6 н/о н/о +32.5 +24.5 63 +45 +45 опасность
перегрева
1009.5 1008.6
07 20.04 СВ 6 н/о н/о +32.3 +25.9 69 +48 +48 опасность
перегрева
1009.1 1008.2
09 20.04 В 7 н/о н/о +31.0 +24.1 67 +43 +43 опасность
перегрева
1009.5 1008.6
10 20.04 В 6 н/о н/о +30.6 +23.8 67 +42 +42 опасность
перегрева
1010.2 1009.3
12 20.04 В 6 н/о н/о +30.1 +24.0 70 +42 +42 опасность
перегрева
1011.3 1010.4
13 20.04 В 6 н/о н/о +29.9 +24.1 71 +41 +41 опасность
перегрева
1012.0 1011.1 +34.0
15 20.04 СВ 4 н/о н/о +29.6 +24.5 74 +42 +42 опасность
перегрева
1011.8 1010.9
16 20.04 СВ 3 н/о н/о +29.3 +24.2 74 +41 +41 опасность
перегрева
1011.3 1010.4
18 20.04 СВ 1 н/о н/о +28.8 +23.9 75 +40 +40 очень
душно
1010.8 1009.9
19 20.04 СВ 2 н/о н/о +28.3 +24.1 78 +39 +39 очень
душно
1010.7 1009.8
21 20.04 штиль 0 н/о н/о +28.1 +24.1 79 +39 +39 очень
душно
1011.5 1010.6
22 20.04 ЮВ 2 н/о н/о +28.2 +24.4 80 +40 +40 очень
душно
1012.1 1011.2
00 21.04 Ю 4 н/о н/о +30.8 +24.7 70 +44 +44 опасность
перегрева
1012.9 1012.0
01 21.04 ЮВ 4 н/о н/о +32.1 +25.4 68 +47 +47 опасность
перегрева
1013.1 1012.2 +27.9
03 21.04 ЮВ 3 н/о н/о +32.9 +23.5 58 +44 +44 опасность
перегрева
1012.1 1011.2
04 21.04 Ю 3 н/о н/о +32.8 +22.6 55 +42 +42 опасность
перегрева
1011.0 1010.1
06 21.04 СВ 3 н/о н/о +32.4 +23.1 58 +43 +43 опасность
перегрева
1009.7 1008.8
07 21.04 В 3 н/о н/о +32.4 +22.8 57 +42 +42 опасность
перегрева
1009.3 1008.4
09 21.04 СВ 6 н/о н/о +31.3 +22.0 58 +40 +40 очень
душно
1009.9 1009.0
10 21.04 СВ 5 н/о н/о +30.4 +22.8 64 +40 +40 очень
душно
1010.3 1009.4
12 21.04 СВ 6 н/о н/о +29.8 +23.5 69 +40 +40 очень
душно
1011.5 1010.6
13 21.04 СВ 4 н/о н/о +29.4 +23.8 72 +40 +40 очень
душно
1011.7 1010.8 +34.0
15 21.04 СВ 2 н/о н/о +28.7 +24.0 76 +40 +40 очень
душно
1011.3 1010.4
16 21.04 С 2 н/о н/о +28.7 +23.6 74 +39 +39 очень
душно
1010.9 1010.0
18 21.04 С 2 н/о н/о +27.8 +23.6 78 +38 +38 очень
душно
1010.3 1009.4
19 21.04 ЮЗ 3 н/о н/о +28.6 +24.6 79 +41 +41 опасность
перегрева
1010.1 1009.2
21 21.04 Ю 5 н/о н/о +28.8 +24.4 77 +40 +40 очень
душно
1010.5 1009.6
22 21.04 Ю 5 н/о н/о +29.2 +23.6 72 +40 +40 очень
душно
1011.1 1010.2
00 22.04 ЮВ 4 н/о н/о +31.1 +24.5 68 +44 +44 опасность
перегрева
1012.2 1011.3
01 22.04 Ю 4 н/о н/о +32.0 +24.6 65 +45 +45 опасность
перегрева
1012.3 1011.4 +27.7
03 22.04 В 4 н/о н/о +33.4 +24.3 59 +46 +46 опасность
перегрева
1011.5 1010.6
04 22.04 В 4 н/о н/о +34.6 +21.3 46 +42 +42 опасность
перегрева
1010.7 1009.8
06 22.04 СВ 4 н/о н/о +34.0 +21.8 49 +42 +42 опасность
перегрева
1009.6 1008.7
07 22.04 СВ 4 н/о н/о +33.3 +21.1 49 +41 +41 опасность
перегрева
1009.2 1008.3
09 22.04 СВ 4 н/о н/о +31.7 +21.8 56 +40 +40 очень
душно
1009.7 1008.8
10 22.04 СВ 5 н/о н/о +30.6 +22.5 62 +40 +40 очень
душно
1010.2 1009.3
12 22.04 СВ 5 н/о н/о +30.0 +23.4 68 +41 +41 опасность
перегрева
1011.3 1010.4
13 22.04 СВ 4 н/о н/о +29.8 +23.5 69 +40 +40 очень
душно
1011.5 1010.6 +35.4
15 22.04 С 2 н/о н/о +29.0 +23.2 71 +39 +39 очень
душно
1011.2 1010.3
16 22.04 С 2 н/о н/о +28.3 +23.2 74 +38 +38 очень
душно
1011.0 1010.1
18 22.04 З 2 н/о н/о +28.6 +23.9 76 +40 +40 очень
душно
1010.2 1009.3
19 22.04 ЮЗ 3 н/о н/о +28.8 +23.9 75 +40 +40 очень
душно
1010.2 1009.3
21 22.04 ЮЗ 4 н/о н/о +28.9 +24.0 75 +40 +40 очень
душно
1010.8 1009.9
22 22.04 Ю 4 н/о н/о +29.2 +23.9 73 +40 +40 очень
душно
1011.6 1010.7
00 23.04 ЮВ 2 н/о н/о +31.6 +23.2 61 +42 +42 опасность
перегрева
1012.7 1011.8
01 23.04 Ю 2 н/о н/о +32.2 +21.7 54 +41 +41 опасность
перегрева
1012.8 1011.9
03 23.04 В 3 н/о н/о +33.1 +23.4 57 +44 +44 опасность
перегрева
1011.5 1010.6
04 23.04 СВ 3 н/о н/о +32.2 +22.0 55 +41 +41 опасность
перегрева
1010.4 1009.5
06 23.04 В 3 н/о н/о +33.3 +20.1 46 +40 +40 очень
душно
1009.1 1008.2
07 23.04 С 4 н/о н/о +32.2 +22.9 58 +42 +42 опасность
перегрева
1008.7 1007.8
09 23.04 С 4 н/о н/о +30.7 +22.8 63 +41 +41 опасность
перегрева
1009.3 1008.4
10 23.04 С 3 н/о н/о +29.8 +23.3 68 +40 +40 очень
душно
1009.7 1008.8
12 23.04 С 2 н/о н/о +30.0 +23.2 67 +40 +40 очень
душно
1011.1 1010.2
13 23.04 штиль 0 н/о н/о +28.8 +23.0 71 +39 +39 очень
душно
1011.4 1010.5
15 23.04 СЗ 2 н/о н/о +28.2 +24.2 79 +39 +39 очень
душно
1010.9 1010.0
16 23.04 СЗ 2 н/о н/о +27.9 +24.1 80 +39 +39 очень
душно
1010.5 1009.6
18 23.04 З 3 н/о н/о +28.6 +23.5 74 +39 +39 очень
душно
1010.1 1009.2
19 23.04 ЮЗ 4 н/о н/о +28.6 +23.9 76 +40 +40 очень
душно
1010.1 1009.2
21 23.04 ЮЗ 4 н/о н/о +28.8 +23.7 74 +39 +39 очень
душно
1010.6 1009.7
22 23.04 ЮЗ 4 н/о н/о +28.9 +24.0 75 +40 +40 очень
душно
1010.9 1010.0
00 24.04 ЮЗ 4 н/о н/о +31.2 +24.1 66 +43 +43 опасность
перегрева
1012.1 1011.2
01 24.04 Ю 3 н/о н/о +31.4 +25.3 70 +45 +45 опасность
перегрева
1012.0 1011.1 +27.8
03 24.04 ЮЗ 5 н/о н/о +33.1 +25.1 63 +47 +47 опасность
перегрева
1010.4 1009.5
04 24.04 ЮЗ 4 н/о н/о +33.1 +25.1 63 +47 +47 опасность
перегрева
1009.6 1008.7
06 24.04 СЗ 4 н/о н/о +33.1 +24.0 59 +45 +45 опасность
перегрева
1008.1 1007.2
07 24.04 СЗ 4 н/о н/о +32.9 +23.8 59 +44 +44 опасность
перегрева
1007.7 1006.8
09 24.04 СВ 3 н/о н/о +31.5 +22.2 58 +41 +41 опасность
перегрева
1008.8 1007.9
10 24.04 СВ 4 н/о н/о +30.8 +22.7 62 +40 +40 очень
душно
1009.5 1008.6
12 24.04 СВ 5 н/о н/о +30.3 +23.2 66 +41 +41 опасность
перегрева
1010.7 1009.8
13 24.04 СВ 4 н/о н/о +30.0 +23.9 70 +41 +41 опасность
перегрева
1010.9 1010.0 +33.9
15 24.04 С 3 н/о н/о +29.1 +23.8 73 +40 +40 очень
душно
1011.0 1010.1
18 24.04 С 3 н/о н/о +27.9 +23.7 78 +38 +38 очень
душно
1009.9 1009.0
19 24.04 СЗ 3 н/о н/о +27.9 +23.9 79 +39 +39 очень
душно
1009.8 1008.9

 

Местоположение метеостанции Troughton Island (Западная Австралия, Австралия): широта -13.75 долгота 126.15 высота над уровнем моря 8 м.

В архиве по умолчанию представлена погода в Troughton Island за последнюю неделю. Архивные данные за месяц целиком и за предыдущие месяцы, начиная с января 2011 года, Вы можете получить, выбрав интересующий диапазон дат из раскрывающегося списка и нажав кнопку "Ввод!".


*Определитесь, кто Вы:
робот инопланетянин человек

Внимание! Время в таблицах - всемирное. Для получения местного времени необходимо прибавить поправку, которая в Troughton Island равна 8 ч.

Смотрите также архив погоды в соседних городах и на ближайших метеорологических станциях:

Погода в Truscott (Западная Австралия, Австралия) (44 км)
Погода в Kalumburu (Западная Австралия, Австралия) (82 км)
Погода в Browse Island (Западная Австралия, Австралия) (284 км)
Погода в Wyndham Aero (Западная Австралия, Австралия) (290 км)
Погода в Kununurra (Западная Австралия, Австралия) (356 км)
Погода в Port Keats Aero (Северная территория, Австралия) (369 км)
Погода в Adele Island (Западная Австралия, Австралия) (378 км)
Погода в Argyle Aero (Западная Австралия, Австралия) (404 км)
Погода в Bathurst Island (Северная территория, Австралия) (473 км)
Погода в Dum In Mirrie (Северная территория, Австралия) (474 км)

Пояснения к столбцам:

Ветер - указаны скорость ветра в м/с - средняя за 10 мин, порывы в срок и между сроками (в фигурных скобках) и направление, откуда дует ветер: С - северный, СВ - северо-восточный, В - восточный, ЮВ - юго-восточный, Ю - южный, ЮЗ - юго-западный, З - западный, СЗ - северо-западный.
Видимость - горизонтальная дальность видимости в метрах или километрах. При видимости от 1 до 10 км при отсутствии осадков обычно наблюдается дымка, при ухудшении видимости до 1 км и менее - туман. В сухую погоду видимость может ухудшаться дымом, пылью или мглою.
Явления - указаны атмосферные явления, наблюдавшиеся в срок или в последний час перед сроком; фигурными скобками обозначены явления, наблюдавшиеся между сроками (за 1-3 часа до срока); квадратными скобками обозначены град или гололедные отложения с указанием их диаметра в мм.
Облачность - указаны через наклонную черту общая и нижняя облачность в баллах и высота нижней границы облаков в метрах; квадратными скобками обозначены формы облаков: Ci - перистые, Cs - перисто-слоистые, Cc - перисто-кучевые, Ac - высококучевые, As - высокослоистые, Sc - слоисто-кучевые, Ns - слоисто-дождевые, Cu - кучевые, Cb - кучево-дождевые. Подробнее классификацию облаков см. в Атласе облаков (PDF).
T - Температура воздуха - температура, измеренная на высоте 2 м над землей.
Td - Температура точки росы - температура, при понижении до которой содержащийся в воздухе водяной пар достигнет насыщения.
f - Относительная влажность воздуха - влажноcть воздуха, измеренная на высоте 2 м над землей.
Te - Эффективная температура - температура, которую ощущает одетый по сезону человек в тени. Характеристика душности погоды. При расчете учитывается влияние влажности воздуха и скорости ветра на теплоощущения человека.
Tes - Эффективная температура на солнце - температура, которую ощущает человек, с поправкой на солнечный нагрев. Характеристика знойности погоды. Зависит от высоты солнца над горизонтом, облачности и скорости ветра. Ночью, в пасмурную погоду, а также при ветре 12 м/с и более поправка равна нулю.
P - Атмосферное давление - приведенное к уровню моря атмосферное давление.
Po - Атмосферное давление - измеренное на уровне метеостанции атмосферное давление.
Tmin - Минимальная температура - минимум температуры воздуха на высоте 2 м над землей.
Tmax - Максимальная температура - максимум температуры воздуха на высоте 2 м над землей.
R - Количество осадков - Количество выпавших осадков за период времени, мм. При наведении курсора мыши на число - период времени, за который выпало указанное количество осадков.
R24 - Количество осадков - Количество выпавших осадков за 24 часа, мм.
S - Снежный покров - Высота снежного покрова, см. При наведении курсора мыши на число - состояние снежного покрова и степень покрытия местности в баллах.